Location: Gleizolles
(44.4833°N, 6.7667°E)
Time: 21:03:51
(UTC+00:00)

A-11 Canister half - Pass Details

Date: 29 June 2024
Orbit: 1524 x 1684 km, 47.3° (Epoch: 18 July)

Event Time Altitude Azimuth Distance (km) Brightness Sun altitude
Rises 13:10:17 0° 271° (W) 4,745 11.9 61.4°
Reaches altitude 10° 13:13:24 10° 274° (W) 3,742 11.5 60.9°
Maximum altitude 13:22:51 75° 360° (N) 1,578 10.1 59.6°
Drops below altitude 10° 13:32:09 10° 86° (E) 3,690 10.8 58.2°
Sets 13:35:12 0° 88° (E) 4,675 11.3 57.8°
